Hourly Data Report for November 07, 2004

SHERBROOKE A
QUEBEC

45°26'00.000" N
71°41'00.000" W
241.40 m
7028124
71610
YSC

Download Data

Hourly Data (November 2004)
Hourly Data Report for November 7, 2004
TIME
LST
Temp Definition
°C
Dew Point Definition
°C
Rel Hum Definition
%
Precip. Amount Definition
mm

Wind Dir Definition
10's deg

Wind Spd Definition
km/h
Visibility Definition
km
Stn Press Definition
kPa
Hmdx Definition


Wind Chill Definition


Weather Definition


00:00 1.9 -3.5 67   24 9 15.0 97.80      
01:00 0.6 -4.2 70   26 9 15.0 97.83      
02:00 -1.0 -3.8 81     0 15.0 97.88      
03:00 -1.0 -2.7 88     0 15.0 97.91      
04:00 -0.5 -2.6 86   13 7 15.0 97.96   -3  
05:00 -0.2 -2.3 86   10 4 15.0 97.90   -1  
06:00 -0.4 -2.2 88   8 11 15.0 97.87   -4  
07:00 -0.2 -2.2 86   9 9 15.0 97.87   -3  
08:00 1.4 -2.0 78   9 9 24.1 97.80     Mostly Cloudy
09:00 2.5 -1.1 77   7 7 24.1 97.71     Mostly Cloudy
10:00 4.1 0.2 76   8 4 24.1 97.64     Cloudy
11:00 5.2 1.9 79   12 9 24.1 97.56     Cloudy
12:00 8.2 3.2 71   18 15 24.1 97.39     Mostly Cloudy
13:00 10.1 4.6 69   19 15 24.1 97.29     Mostly Cloudy
14:00 10.9 4.4 64   19 20 24.1 97.17     Mostly Cloudy
15:00 10.6 4.2 65   19 17 24.1 97.12     Mostly Cloudy
16:00 10.7 3.8 62   20 15 24.1 97.15     Cloudy
17:00 10.6 3.8 63   20 17 24.1 97.17     Cloudy
18:00 9.8 3.9 67   24 9 15.0 97.20      
19:00 8.6 4.2 74   32 13 15.0 97.26      
20:00 6.8 4.9 88   29 24 15.0 97.40     Rain
21:00 5.1 3.9 92   26 9 15.0 97.59     Rain
22:00 1.7 -0.7 84   32 17 15.0 97.79      
23:00 0.9 -1.4 85   30 9 15.0 97.92      

Notes on Data Quality.

Legend

  • E = Estimated
  • M = Missing
  • NA = Not Available*
  • [empty] = Indicates an unobserved value
Date modified: